Regional Weather Roundup
Issued by NWS

Home | Current Version | Previous Version | Graphics & Text | Print | Product List | Glossary On
Versions: 1 2 3 4 5 6 7 8 9 10 11 12 13 14 15 16 17 18 19 20 21 22 23 24 25 26 27 28 29 30 31 32 33 34 35 36 37 38 39 40 41 42 43 44 45 46 47 48 49 50
000
ASUS43 KMKX 241311
RWRWI

WISCONSIN REGIONAL WEATHER ROUNDUP
NATIONAL WEATHER SERVICE MILWAUKEE/SULLIVAN WI
800 AM CDT MON JUL 24 2017

NOTE: "FAIR" INDICATES FEW OR NO CLOUDS BELOW 12,000 FEET WITH NO
SIGNIFICANT WEATHER AND/OR OBSTRUCTIONS TO VISIBILITY.

WIZ001-002-006>008-014>016-023>028-241400-
NORTHWEST WISCONSIN

CITY           SKY/WX    TMP DP  RH WIND       PRES   REMARKS
SUPERIOR ARPT  NOT AVBL
ASHLAND        FOG       55  55 100 CALM      30.11S VSB 1/4
HAYWARD        MOSUNNY   56  54  93 CALM      30.11S
SIREN          FOG       55  55  98 CALM      30.10S VSB 1/2
CUMBERLAND     FOG       54  52  94 CALM      30.10S VSB 1/4
RICE LAKE      RAIN      55  54  97 N3        30.11S VSB 1/4
CHETEK         CLOUDY    55  55  98 CALM      30.10S
LADYSMITH      CLOUDY    55  54  97 E7        30.13S
EAU CLAIRE     SUNNY     61  56  83 E8        30.09R
MENOMONIE      SUNNY     60  56  89 CALM      30.09S
NEW RICHMOND   SUNNY     59  59  99 E6        30.08F
OSCEOLA        SUNNY     60  60 100 E5        30.11S
$$

WIZ003>005-009-010-017-018-241400-
NORTH CENTRAL WISCONSIN

CITY           SKY/WX    TMP DP  RH WIND       PRES   REMARKS
MANITOWISH WTR SUNNY     55  55 100 CALM      30.12S
ARBOR VITAE    SUNNY     57  53  88 CALM      30.12R
WOODRUFF       SUNNY     57  53  88 CALM      30.12R
RHINELANDER    CLOUDY    54  54 100 E5        30.13R
EAGLE RIVER    PTSUNNY   53  53 100 CALM      30.12S
LAND O LAKES   SUNNY     55  55 100 CALM      30.13S
PHILLIPS       CLOUDY    54  54 100 E5        30.12R
TOMAHAWK         N/A     54  53  96 CALM      30.13R
MEDFORD        CLOUDY    55  52  92 E6        30.11R
MERRILL        NOT AVBL
$$

WIZ029-030-035-036-043>047-241400-
CENTRAL WISCONSIN

CITY           SKY/WX    TMP DP  RH WIND       PRES   REMARKS
WAUSAU         CLOUDY    58  52  80 E7        30.09S
MOSINEE        CLOUDY    59  55  88 NE6       30.11S
MARSHFIELD     CLOUDY    59  53  80 VRB5      30.09R
STEVENS POINT  PTSUNNY   60  55  83 NE8       30.10R
WAUPACA        MOSUNNY   64  56  76 N7        30.08S
WAUTOMA        CLOUDY    62  56  80 NE8       30.07S
WISC RAPIDS    CLOUDY    64  55  72 NE7       30.09S
CAMP DOUGLAS   CLOUDY    63  57  82 NE5       30.07R
$$

WIZ011>013-019>022-031-037>040-048>050-241400-
NORTHEAST WISCONSIN

CITY           SKY/WX    TMP DP  RH WIND       PRES   REMARKS
ANTIGO         CLOUDY    54  51  89 NE3       30.12R
SHAWANO        PTSUNNY   63  55  76 N8        30.09S
OCONTO         SUNNY     60  54  79 N7        30.08R
STURGEON BAY     N/A     62  57  83 MISG      30.08R
GREEN BAY      CLOUDY    62  58  86 N12       30.08R
MANITOWOC      PTSUNNY   64  55  72 N8        30.06R
APPLETON       PTSUNNY   61  54  77 N9        30.06R
CLINTONVILLE   SUNNY    N/A N/A N/A NE8       30.08S
OSHKOSH        CLOUDY    65  55  70 NE12      30.06R
$$

WIZ032>034-041-042-053>061-241400-
SOUTHWEST WISCONSIN

CITY           SKY/WX    TMP DP  RH WIND       PRES   REMARKS
LA CROSSE      PTSUNNY   64  56  75 NE9       30.07R
SPARTA         CLOUDY    59  55  85 NE6       30.09R
VIROQUA        CLOUDY    58  58  97 CALM      30.07S
BOSCOBEL       MOSUNNY   64  58  80 VRB5      30.06R
PRAIRIE DU CHI MOSUNNY   63  56  77 E3        30.06R
PLATTEVILLE    SUNNY     63  62  96 NE8       30.05R
$$

WIZ056-057-062-063-064-067-068-241400-
SOUTH CENTRAL WISCONSIN

CITY           SKY/WX    TMP DP  RH WIND       PRES   REMARKS
REEDSBURG      CLOUDY    62  57  84 NE8       30.06R
BARABOO/DELLS  CLOUDY    62  55  77 NE7       30.06R
LONE ROCK      SUNNY     65  57  75 NE7       30.05R
MINERAL POINT  SUNNY     63  61  94 NE7       30.05R
MADISON        PTSUNNY   63  59  87 NE7       30.04R
MIDDLETON      CLOUDY    64  61  90 NE7       30.05S
WATERTOWN      CLOUDY    64  60  88 NE8       30.04R
MONROE         SUNNY     63  59  88 NE13      30.03S
JANESVILLE     MOSUNNY   66  57  72 NE9       30.02S
$$

WIZ051-052-058>065-066-070>072-241400-
SOUTHEAST WISCONSIN

CITY           SKY/WX    TMP DP  RH WIND       PRES   REMARKS
MILWAUKEE      PTSUNNY   67  59  75 N12G24    30.02R
WAUKESHA       CLOUDY    63  55  77 N8        30.04S
MILWAUKEE/TIMM CLOUDY    64  55  72 N10G16    30.04R
RACINE         CLOUDY    66  60  81 N17G23    30.03S
KENOSHA        CLOUDY    66  60  81 N7        30.02R
FOND DU LAC    CLOUDY    65  54  67 NE12      30.06R
SHEBOYGAN      CLOUDY    63  58  83 N9        30.05R
WEST BEND      CLOUDY    63  55  77 NE7       30.05R
JUNEAU         CLOUDY    62  56  81 NE3       30.06S
$$

LSZ147-162-241400-
LAKE SUPERIOR

STATION/POSITION TIME  TEMP    WIND        PRES    WAVE
                       AIR SEA DIR/SP/G            HT/PER
                 (UTC) (F)     (DEG/KT/KT) (MB)    (FT/S)
W MID LAKE BUOY  1250   48 48  240/  4/  6 1019.6R   1
DEVILS ISLAND    1300   54     230/  2/  3 1019.9R
SAXON HARBOR     1240   55     210/  4/  6 1019.3R
$$

LMZ867-665-643>646-241400-
LAKE MICHIGAN

STATION/POSITION TIME  TEMP    WIND        PRES    WAVE
                       AIR SEA DIR/SP/G            HT/PER
                 (UTC) (F)     (DEG/KT/KT) (MB)    (FT/S)
CHAMBERS ISLAND  1240   62     360/ 13/ 15 1017.9R
S GREEN BAY BUOY 1300   62 72   10/ 10/ 16 1018.1
N MID LAKE BUOY  1250   61 65   10/ 16/ 17 1018.0R   3/ 5
NORTHPORT PIER   1240   61     350/ 11/ 14 1018.3R
KEWAUNEE LAKESHO 1248   63     360/  8/ 13 1017.0R
SHEBOYGAN LAKESH 1300   64      10/ 17/ 20 1017.1R
PORT WASHINGTON  1230   65     350/  5/  9 1017.9R
ATWATER BUOY     1209   66 67   30/ 19/ 23 1016.6R
MILWAUKEE LAKESH 1250   66      30/ 19/ 22   N/A
S MID LAKE BUOY  1250   67 69   20/ 16/ 19 1015.4R   5/ 7
KENOSHA   LAKESH 1300   66      20/ 21/ 24 1015.9
$$

TC  - TEMPERATURE IN CELSIUS
VSB - VISIBILITY IN STATUTE MILES
WCI - WIND CHILL INDEX
HX  - HEAT INDEX





USA.gov is the U.S. government's official web portal to all federal, state and local government web resources and services.